Location: Cormont
(50.5693°N, 1.7416°E)
Time: 02:33:17
(UTC+00:00)

Cosmos 1864 Rocket - Pass Details

Date: 21 October 2019
Orbit: 951 x 997 km, 82.9° (Epoch: 22 November)

Event Time Altitude Azimuth Distance (km) Brightness Sun altitude
Rises 19:08:29 0° 351° (N) 3,643 7.8 -22.7°
Reaches altitude 10° 19:11:00 10° 354° (N) 2,696 7.0 -23.1°
Maximum altitude 19:17:09 68° 77° (ENE) 1,032 4.3 -24.0°
Enters shadow 19:18:58 46° 142° (SE) 1,273 4.7 -24.3°
